Weather History for Jackson, MN

Change the Weather History Date:

Tuesday, May 28, 2013

  Actual Average Record
Temperature  
Mean Temperature 60 °F -  
Max Temperature 66 °F 68 °F 95 °F (2006)
Min Temperature 55 °F 49 °F 44 °F (2005)
Degree Days  
Heating Degree Days 4    
Growing Degree Days 10 (Base 50)    
Moisture  
Dew Point 55 °F    
Average Humidity 88    
Maximum Humidity 94    
Minimum Humidity 73    
Precipitation  
Precipitation 0.01 in - - ()
Sea Level Pressure  
Sea Level Pressure 29.74 in    
Wind  
Wind Speed 6 mph (NE)    
Max Wind Speed 12 mph    
Max Gust Speed -    
Visibility 4 miles    
Events Fog , Rain    
Averages and records for this station are not official NWS values.
T = Trace of Precipitation, MM = Missing Value Source: NWS Daily Summary

Daily Weather History Graph

Daily Weather History Graph

Search for Another Location

Airport:

Trip Planner

Search our weather history database for the weather conditions in past years. The results will help you decide how hot, cold, wet, or windy it might be!

Date:

Astronomy

May. 28, 2013 Rise Set
Actual Time 5:43 AM CDT 8:51 PM CDT
Civil Twilight 5:08 AM CDT 9:26 PM CDT
Nautical Twilight 4:24 AM CDT 10:11 PM CDT
Astronomical Twilight 3:30 AM CDT 11:04 PM CDT
Moon No Moon Rise 9:35 AM CDT (5/28)
Length of Visible Light 16h 17m
Length of Day
15h 08m
Waning Gibbous, 82% of the Moon is Illuminated
May 28
Waning Gibbous
May 31
Last Quarter
Jun 8
New
Jun 16
First Quarter
Jun 23
Full

Hourly Weather History & Observations

Time (CDT) Temp. Dew Point Humidity Pressure Visibility Wind Dir Wind Speed Gust Speed Precip Events Conditions
12:12 AM 55.4 °F 53.6 °F 94% 29.79 in 0.5 mi East 8.1 mph - N/A Fog Fog
12:32 AM 55.4 °F 53.6 °F 94% 29.76 in 0.5 mi ENE 8.1 mph - N/A Fog Fog
12:53 AM 55.4 °F 53.6 °F 94% 29.75 in 0.5 mi ENE 10.4 mph - N/A Fog Fog
1:12 AM 55.4 °F 53.6 °F 94% 29.75 in 0.2 mi ENE 8.1 mph - N/A Fog Fog
1:32 AM 55.4 °F 53.6 °F 94% 29.74 in 0.2 mi ENE 8.1 mph - N/A Fog Fog
1:53 AM 55.4 °F 53.6 °F 94% 29.74 in 0.2 mi ENE 6.9 mph - N/A Fog Fog
2:12 AM 55.4 °F 53.6 °F 94% 29.74 in 0.2 mi East 9.2 mph - N/A Fog Fog
2:32 AM 55.4 °F 53.6 °F 94% 29.74 in 0.2 mi ENE 8.1 mph - N/A Fog Fog
2:53 AM 55.4 °F 53.6 °F 94% 29.74 in 0.2 mi ENE 6.9 mph - N/A Fog Fog
3:12 AM 55.4 °F 53.6 °F 94% 29.73 in 0.2 mi ENE 6.9 mph - N/A Fog Fog
3:32 AM 55.4 °F 53.6 °F 94% 29.73 in 0.2 mi ENE 6.9 mph - N/A Fog Fog
3:53 AM 55.4 °F 53.6 °F 94% 29.72 in 0.2 mi NE 5.8 mph - N/A Fog Fog
4:12 AM 55.4 °F 53.6 °F 94% 29.72 in 0.2 mi NE 5.8 mph - N/A Fog Fog
4:32 AM 55.4 °F 53.6 °F 94% 29.72 in 0.2 mi ENE 6.9 mph - N/A Fog Fog
4:53 AM 55.4 °F 53.6 °F 94% 29.72 in 0.2 mi ENE 6.9 mph - N/A Fog Fog
5:12 AM 55.4 °F 53.6 °F 94% 29.72 in 0.2 mi NNE 5.8 mph - N/A Fog Fog
5:32 AM 55.4 °F 53.6 °F 94% 29.72 in 0.2 mi ENE 5.8 mph - N/A Fog Fog
5:52 AM 55.4 °F 53.6 °F 94% 29.71 in 0.2 mi NE 5.8 mph - N/A Fog Fog
6:12 AM 55.4 °F 53.6 °F 94% 29.71 in 0.2 mi NE 4.6 mph - N/A Fog Fog
6:32 AM 55.4 °F 53.6 °F 94% 29.70 in 0.2 mi NNE 3.5 mph - N/A Fog Fog
6:52 AM 55.4 °F 53.6 °F 94% 29.71 in 0.2 mi North 3.5 mph - N/A Fog Fog
7:12 AM 55.4 °F 53.6 °F 94% 29.71 in 0.2 mi North 3.5 mph - N/A Fog Fog
7:33 AM 55.4 °F 53.6 °F 94% 29.69 in 0.2 mi NE 8.1 mph - N/A Fog Fog
7:52 AM 55.4 °F 53.6 °F 94% 29.69 in 0.2 mi NE 8.1 mph - N/A Fog Fog
8:12 AM 55.4 °F 53.6 °F 94% 29.70 in 0.2 mi ENE 8.1 mph - N/A Fog Fog
8:32 AM 55.4 °F 53.6 °F 94% 29.71 in 0.2 mi NE 5.8 mph - N/A Fog Fog
8:52 AM 55.4 °F 53.6 °F 94% 29.70 in 0.2 mi ENE 8.1 mph - N/A Fog Fog
9:12 AM 55.4 °F 53.6 °F 94% 29.70 in 0.2 mi ENE 8.1 mph - N/A Fog Fog
9:32 AM 55.4 °F 53.6 °F 94% 29.71 in 0.2 mi ENE 5.8 mph - N/A Fog Fog
9:52 AM 55.4 °F 53.6 °F 94% 29.71 in 0.2 mi East 8.1 mph - N/A Fog Fog
10:12 AM 57.2 °F 53.6 °F 88% 29.72 in 0.2 mi East 6.9 mph - 0.01 in Rain Light Rain
10:32 AM 57.2 °F 55.4 °F 94% 29.71 in 0.2 mi East 6.9 mph - 0.01 in Fog Fog
10:52 AM 57.2 °F 55.4 °F 94% 29.72 in 0.2 mi East 4.6 mph - 0.01 in Fog Fog
11:12 AM 57.2 °F 55.4 °F 94% 29.74 in 0.2 mi Calm Calm - N/A Fog Fog
11:32 AM 57.2 °F 55.4 °F 94% 29.74 in 0.5 mi Calm Calm - N/A   Light Drizzle
11:52 AM 59.0 °F 55.4 °F 88% 29.74 in 0.5 mi Calm Calm - N/A Fog Fog
12:12 PM 59.0 °F 55.4 °F 88% 29.74 in 0.8 mi WSW 3.5 mph - N/A   Overcast
12:32 PM 59.0 °F 55.4 °F 88% 29.75 in 1.8 mi West 8.1 mph - N/A   Overcast
12:52 PM 59.0 °F 55.4 °F 88% 29.75 in 2.0 mi West 6.9 mph - N/A   Overcast
1:12 PM 59.0 °F 55.4 °F 88% 29.75 in 3.0 mi West 9.2 mph - N/A   Overcast
1:32 PM 59.0 °F 57.2 °F 94% 29.73 in 5.0 mi NW 5.8 mph - N/A   Overcast
1:52 PM 60.8 °F 57.2 °F 88% 29.75 in 7.0 mi WNW 11.5 mph - N/A   Overcast
2:12 PM 60.8 °F 59.0 °F 94% 29.74 in 10.0 mi WNW 8.1 mph - N/A   Overcast
2:33 PM 60.8 °F 59.0 °F 94% 29.75 in 10.0 mi NNW 10.4 mph - N/A   Overcast
2:52 PM 62.6 °F 59.0 °F 88% 29.73 in 10.0 mi North 5.8 mph - N/A   Overcast
3:12 PM 62.6 °F 59.0 °F 88% 29.74 in 10.0 mi North 6.9 mph - N/A   Overcast
3:32 PM 62.6 °F 60.8 °F 94% 29.74 in 10.0 mi North 6.9 mph - N/A   Overcast
3:52 PM 62.6 °F 55.4 °F 77% 29.76 in 10.0 mi Calm Calm - N/A   Overcast
4:12 PM 62.6 °F 55.4 °F 77% 29.76 in 10.0 mi Calm Calm - N/A   Overcast
4:32 PM 62.6 °F 55.4 °F 77% 29.76 in 10.0 mi Calm Calm - N/A   Overcast
4:53 PM 64.4 °F 55.4 °F 73% 29.76 in 10.0 mi Calm Calm - N/A   Overcast
5:12 PM 64.4 °F 55.4 °F 73% 29.76 in 10.0 mi Calm Calm - N/A   Overcast
5:32 PM 64.4 °F 57.2 °F 77% 29.76 in 10.0 mi Calm Calm - N/A   Overcast
5:53 PM 64.4 °F 57.2 °F 77% 29.76 in 10.0 mi Calm Calm - N/A   Overcast
6:12 PM 66.2 °F 57.2 °F 73% 29.76 in 10.0 mi Calm Calm - N/A   Scattered Clouds
6:32 PM 66.2 °F 57.2 °F 73% 29.75 in 10.0 mi Calm Calm - N/A   Clear
6:52 PM 66.2 °F 57.2 °F 73% 29.74 in 10.0 mi Calm Calm - N/A   Clear
7:12 PM 66.2 °F 57.2 °F 73% 29.74 in 10.0 mi Calm Calm - N/A   Clear
7:32 PM 66.2 °F 57.2 °F 73% 29.74 in 10.0 mi Calm Calm - N/A   Clear
7:52 PM 66.2 °F 57.2 °F 73% 29.74 in 10.0 mi East 4.6 mph - N/A   Clear
8:12 PM 64.4 °F 57.2 °F 77% 29.74 in 10.0 mi East 4.6 mph - N/A   Clear
8:32 PM 62.6 °F 57.2 °F 82% 29.73 in 10.0 mi Calm Calm - N/A   Clear
8:52 PM 62.6 °F 57.2 °F 82% 29.73 in 10.0 mi Calm Calm - N/A   Clear
9:12 PM 60.8 °F 55.4 °F 82% 29.73 in 10.0 mi ENE 3.5 mph - N/A   Clear
9:32 PM 60.8 °F 55.4 °F 82% 29.74 in 10.0 mi ESE 3.5 mph - N/A   Clear
9:52 PM 59.0 °F 55.4 °F 88% 29.77 in 10.0 mi SE 3.5 mph - N/A   Clear
10:12 PM 59.0 °F 55.4 °F 88% 29.80 in 10.0 mi SSE 4.6 mph - N/A   Clear
10:32 PM 57.2 °F 53.6 °F 88% 29.77 in 5.0 mi ESE 6.9 mph - N/A   Clear
10:52 PM 57.2 °F 55.4 °F 94% 29.78 in 5.0 mi Calm Calm - N/A   Clear
11:12 PM 59.0 °F 55.4 °F 88% 29.78 in 5.0 mi SE 3.5 mph - N/A   Clear
11:32 PM 55.4 °F 53.6 °F 94% 29.78 in 2.5 mi ESE 4.6 mph - N/A   Clear
11:52 PM 55.4 °F 53.6 °F 94% 29.78 in 0.8 mi Calm Calm - N/A   Mist